This is the latest recevied weather packets stored in our database for station/object XE2OR-10. If no packets are shown the sender has not sent any weather packets the latest 1 day(s).
| Time | Temp. | Humidity | Pressure | Rain* | Wind** | Luminosity | Snow |
|---|---|---|---|---|---|---|---|
| 1778074729 | 25.56° C | 91% | 1013.7 hPa | 0 mm | - | 33 W/m² | - |
| 1778073833 | 25° C | 91% | 1013.3 hPa | 0 mm | - | 38 W/m² | - |
| 1778073232 | 25° C | 91% | 1013.3 hPa | 0 mm | - | 35 W/m² | - |
| 1778072629 | 25° C | 91% | 1013.1 hPa | 0 mm | - | 29 W/m² | - |
| 1778072032 | 25° C | 91% | 1013.2 hPa | 0 mm | - | 18 W/m² | - |
| 1778071729 | 25° C | 91% | 1013.3 hPa | 0 mm | - | 6 W/m² | - |
| 1778070529 | 25° C | 90% | 1012.8 hPa | 0 mm | - | 4 W/m² | - |
| 1778070232 | 25° C | 90% | 1012.8 hPa | 0 mm | - | 3 W/m² | - |
| 1778069329 | 25° C | 90% | 1012.8 hPa | 0 mm | - | 0 W/m² | - |
| 1778068729 | 25° C | 90% | 1013 hPa | 0 mm | - | 0 W/m² | - |
| 1778068129 | 25° C | 90% | 1012.7 hPa | 0 mm | - | 0 W/m² | - |
| 1778066929 | 25.56° C | 89% | 1012.2 hPa | 0 mm | - | 0 W/m² | - |
| 1778066032 | 25.56° C | 89% | 1012.3 hPa | 0 mm | - | 0 W/m² | - |
| 1778064832 | 25.56° C | 88% | 1011.8 hPa | 0 mm | - | 0 W/m² | - |
| 1778064529 | 25.56° C | 88% | 1012 hPa | 0 mm | - | 0 W/m² | - |
| 1778062729 | 25.56° C | 87% | 1011.6 hPa | 0 mm | - | 0 W/m² | - |
| 1778062129 | 25.56° C | 87% | 1011.5 hPa | 0 mm | - | 0 W/m² | - |
| 1778061529 | 25.56° C | 87% | 1011.4 hPa | 0 mm | - | 0 W/m² | - |
| 1778061233 | 25.56° C | 87% | 1011.7 hPa | 0 mm | - | 0 W/m² | - |
| 1778060633 | 26.11° C | 86% | 1011.5 hPa | 0 mm | - | 0 W/m² | - |
| 1778060029 | 26.11° C | 86% | 1011.6 hPa | 0 mm | - | 0 W/m² | - |
| 1778059432 | 26.11° C | 86% | 1011.7 hPa | 0 mm | - | 0 W/m² | - |
| 1778058832 | 26.11° C | 86% | 1011.7 hPa | 0 mm | - | 0 W/m² | - |
| 1778057929 | 26.11° C | 86% | 1011.9 hPa | 0 mm | - | 0 W/m² | - |
| 1778057632 | 26.11° C | 86% | 1011.6 hPa | 0 mm | - | 0 W/m² | - |
* Rain latest hour (hover to see other rain measurements)
** Current wind speed in m/s (hover to see current wind gust speed)